This is the latest recevied weather packets stored in our database for station/object KD5VOO. If no packets are shown the sender has not sent any weather packets the latest 10 day(s).
| Time | Temp. | Humidity | Pressure | Rain* | Wind** | Luminosity | Snow |
|---|---|---|---|---|---|---|---|
| 1777908480 | 22.78° C | 33% | 1014.9 hPa | 0 mm | - | 44 W/m² | - |
| 1777908177 | 22.78° C | 36% | 1014.9 hPa | 0 mm | - | 30 W/m² | - |
| 1777907873 | 22.22° C | 37% | 1015.3 hPa | 0 mm | - | 126 W/m² | - |
| 1777907569 | 22.22° C | 38% | 1015.3 hPa | 0 mm | - | 186 W/m² | - |
| 1777907265 | 22.22° C | 37% | 1015.3 hPa | 0 mm | - | 178 W/m² | - |
| 1777906962 | 22.22° C | 40% | 1015.3 hPa | 0 mm | - | 119 W/m² | - |
| 1777906660 | 21.67° C | 41% | 1015.3 hPa | 0 mm | - | 118 W/m² | - |
| 1777906356 | 21.67° C | 41% | 1015.3 hPa | 0 mm | - | 130 W/m² | - |
| 1777906052 | 21.67° C | 44% | 1015.3 hPa | 0 mm | - | 112 W/m² | - |
| 1777905749 | 21.11° C | 47% | 1015.3 hPa | 0 mm | - | 32 W/m² | - |
| 1777905446 | 21.11° C | 48% | 1015.3 hPa | 0 mm | - | 72 W/m² | - |
| 1777905144 | 20.56° C | 49% | 1015.3 hPa | 0 mm | - | 134 W/m² | - |
| 1777904841 | 20.56° C | 49% | 1015.3 hPa | 0 mm | - | 127 W/m² | - |
| 1777904538 | 20.56° C | 50% | 1015.3 hPa | 0 mm | - | 29 W/m² | - |
| 1777904234 | 20.56° C | 53% | 1015.3 hPa | 0 mm | - | 116 W/m² | - |
| 1777903931 | 20.56° C | 53% | 1015.3 hPa | 0 mm | - | 77 W/m² | - |
| 1777903628 | 21.11° C | 53% | 1015.3 hPa | 0 mm | - | 101 W/m² | - |
| 1777903323 | 21.11° C | 53% | 1015.3 hPa | 0 mm | - | 27 W/m² | - |
| 1777903021 | 21.11° C | 52% | 1015.3 hPa | 0 mm | - | 36 W/m² | - |
| 1777902717 | 21.11° C | 51% | 1015.3 hPa | 0 mm | - | 88 W/m² | - |
| 1777902415 | 20.56° C | 50% | 1015.3 hPa | 0 mm | - | 80 W/m² | - |
| 1777902111 | 20.56° C | 51% | 1015.3 hPa | 0 mm | - | 73 W/m² | - |
| 1777901810 | 20° C | 54% | 1015.3 hPa | 0 mm | - | 67 W/m² | - |
| 1777901507 | 18.89° C | 58% | 1015.3 hPa | 0 mm | - | 59 W/m² | - |
| 1777901204 | 18.33° C | 59% | 1014.9 hPa | 0 mm | - | 52 W/m² | - |
* Rain latest hour (hover to see other rain measurements)
** Current wind speed in m/s (hover to see current wind gust speed)